Find Starlink 36388

NORAD ID: 68037 Int'l Des: 2026-040 Owner: SPXS Country: US Constellation: starlink operational
LEOCIRCULARRETROGRADE

Live Position

Loading 3D Globe...

About Starlink 36388

Description loading...

Upcoming Passes

Passes for default location (London). Set your location on the main map for personalized predictions.

Altitude History

Loading altitude history...

Two-Line Element Set

1 68037U 26040Z 26105.87024918 .00014578 00000-0 44098-3 0 9992
2 68037 97.2828 55.4749 0002239 97.1909 262.9588 15.34299153 7163
Epoch: Apr 15, 2026 • Age: 14 hours

Current Status

Altitude 470.3 km
Velocity 7.64 km/s
Sub-Earth Point 52.03°N, 34.06°E
Launch Date Mar 1, 2026
Age 0.1 years
Type internet

Technical Details

Classification Payload
Mass 575.00 kg
Dry Mass 530.00 kg
Total Mass 575.00 kg
Length 0.30 m
Diameter 4.10 m
Span 29.00 m
Shape Box + pan
Manufacturer SPXS
Bus Type Starlink V2MO
Phase Status In Orbit
Owner/State SPXS/US

Most Searched